Location: London
(51.5074°N, 0.1278°W)
Time: 21:27:41
(UTC+01:00)

DELFI C3 - Pass Details

Date: 06 October 2020
Orbit: 535 x 549 km, 97.4° (Epoch: 22 October)

Event Time Altitude Azimuth Distance (km) Brightness Sun altitude
Exits shadow 19:20:55 13° 96° (E) 1,653 ? -9.4°
Maximum altitude 19:22:57 18° 61° (ENE) 1,394 ? -9.7°
Drops below altitude 10° 19:25:38 10° 18° (NNE) 1,834 ? -10.1°
Sets 19:28:18 0° 359° (N) 2,735 ? -10.5°
